{"data":{"norad_id":68790,"epoch":"2026-09-19T08:17:32.871840Z","epoch_age_seconds":139762,"freshness":"FRESH","line1":"1 68790U 26086AA  26262.34551935  .00020203  00000+0  62611-3 0  9990","line2":"2 68790  97.2804 298.6386 0001933  91.7028 268.4436 15.33461109 23569","mean_motion":15.33461109,"eccentricity":0.0001933,"inclination_deg":97.2804,"raan_deg":298.6386,"arg_perigee_deg":91.7028,"mean_anomaly_deg":268.4436,"bstar":0.00062611,"rev_number":2356,"period_min":93.905218172703,"perigee_km":464.17237173423,"apogee_km":466.81811996048,"semimajor_km":6843.6322458474,"source":"CELESTRAK","updated_at":"2026-09-20T09:00:44.004630Z"}}